Simultaneous Nadir Overpasses (SNOs) Predictions

Prediction of SNOs between AQUA and METOP-C Satellite Orbit:

Table of predicted SNOs for the next 14.0 days since TLE Epoch: 7/24/2021
Index Date (AQUA) Time (AQUA) Lat,Lon (AQUA) SZA (AQUA ) Date (METOP-C) Time (METOP-C) Lat,Lon (METOP-C) SZA (METOP-C ) Distance(km) Time Diff (sec)
1 07/25/2021 04:35:35 -73.66, -74.34 125.90 07/25/2021 04:34:22 -73.61, -74.65 125.92 10.97 73
2 07/25/2021 05:25:05 73.77, 93.05 54.23 07/25/2021 05:24:59 73.76, 93.03 54.23 1.15 6
3 07/25/2021 06:14:32 -73.86, -99.51 125.66 07/25/2021 06:15:39 -73.84, -99.46 125.70 2.87 67
4 07/28/2021 00:09:52 -73.72, -8.05 125.20 07/28/2021 00:08:41 -73.70, -8.03 125.20 2.15 71
5 07/28/2021 00:59:21 73.79, 159.45 54.88 07/28/2021 00:59:20 73.76, 159.42 54.86 3.40 1
6 07/28/2021 01:48:47 -73.82, -32.99 125.07 07/28/2021 01:50:00 -73.83, -33.07 125.07 2.84 73
7 07/30/2021 19:44:07 -73.69, 58.45 124.56 07/30/2021 19:43:02 -73.69, 58.35 124.54 3.15 65
8 07/30/2021 20:33:37 73.81,-134.17 55.58 07/30/2021 20:33:40 73.80,-134.07 55.57 3.61 3
9 07/30/2021 21:23:06 -74.00, 33.06 124.21 07/30/2021 21:24:18 -73.97, 33.67 124.28 19.12 72
10 08/02/2021 15:18:22 -73.72, 124.83 123.82 08/02/2021 15:17:21 -73.73, 124.85 123.80 1.08 61
11 08/02/2021 16:07:51 73.80, -67.70 56.27 08/02/2021 16:08:00 73.79, -67.68 56.27 1.00 9
12 08/02/2021 16:57:24 -74.18, 99.07 123.30 08/02/2021 16:58:33 -74.20, 100.65 123.35 48.06 69
13 08/05/2021 10:52:37 -73.71,-168.71 123.08 08/05/2021 10:51:42 -73.71,-168.78 123.07 2.19 55
14 08/05/2021 11:42:06 73.79, -1.24 57.01 08/05/2021 11:42:21 73.77, -1.31 57.00 2.47 15



Historial Predications of SNOs between AQUA and METOP-C
